Wind_Speed
17 16 15 13 11 12 10 5 3 1 22 3 3 4 4 3 3 3 2 5 3 7 7 4 5 6 3 3 4 6 1 5 3 1 2 1 2 4 5 4 4 1 2 6
17 18 15 14 10 8 9 3 3 2 4 4 2 1 4 4 3 5 6 4 3 3 6 4 4 4 0 3 3 7 6 1 2 3 4 4 2 2 4 4 3 6 4 6
18 18 16 15 11 8 4 3 2 0 2 3 7 8 6 6 3 3 4 4 4 4 3 3 5 4 1 3 2 4 7 3 5 6 4 4 2 4 2 5 3 4 7 6
19 19 17 16 13 9 6 3 4 3 4 4 4 11 7 10 7 2 3 2 5 7 4 3 3 2 2 3 2 3 3 3 2 2 2 3 3 3 7 7 6 6 8 7
20 19 19 18 16 11 9 3 3 2 1 7 14 6 8 7 14 5 5 5 6 5 7 8 9 6 4 4 2 3 3 2 2 2 2 2 4 8 9 7 2 7 6 15
21 21 20 21 20 15 9 7 10 2 3 4 10 7 10 12 6 5 4 7 6 5 5 6 1 3 4 5 7 3 3 5 3 3 3 2 6 8 6 5 5 5 5 8
21 23 22 24 23 21 16 6 6 3 3 8 11 10 15 13 9 6 3 2 7 5 9 7 7 9 9 8 6 3 5 5 2 2 3 1 6 3 4 7 6 8 7 7
24 24 24 25 25 21 22 23 5 2 4 6 6 9 9 6 2 3 4 2 4 12 6 5 5 5 6 5 6 4 3 5 3 4 3 6 6 1 3 5 3 2 4 5
27 26 26 25 24 20 19 24 16 3 3 4 2 7 6 5 5 4 4 4 4 5 4 4 4 4 5 3 2 4 6 6 4 2 4 5 6 4 1 2 4 1 1 4
27 26 26 25 24 18 19 9 16 5 3 5 5 3 7 5 4 4 2 2 4 3 3 3 3 3 5 5 8 5 3 3 5 2 2 7 6 6 2 4 6 0 1 2
25 26 26 23 22 19 17 9 15 11 3 8 7 7 0 6 6 6 4 2 3 3 4 4 4 3 6 4 4 6 7 6 3 3 2 6 5 4 6 5 2 2 3 3
26 27 25 24 22 19 14 7 11 16 5 4 19 22 21 16 11 9 3 3 4 6 4 1 4 3 2 6 3 1 3 6 5 8 6 4 4 2 2 4 4 3 6 7
27 26 28 24 21 19 14 10 10 13 2 8 8 6 11 14 22 23 6 2 4 3 3 4 3 3 4 4 5 3 3 3 3 3 4 6 4 2 4 2 4 5 10 12
25 26 27 24 19 16 12 11 14 15 1 3 5 5 11 11 18 31 26 7 1 3 1 3 3 3 4 4 4 4 4 6 6 4 4 2 5 5 6 7 10 12 12 12
24 27 26 22 17 15 10 11 19 22 7 2 4 15 12 12 12 34 29 13 5 2 2 2 2 3 4 2 3 2 5 7 5 6 8 5 3 8 10 12 11 13 17 13
24 24 22 20 17 12 4 2 15 25 25 3 3 6 4 4 15 23 18 10 4 3 2 2 1 1 3 4 4 6 7 6 4 4 5 4 7 6 5 12 10 15 16 23
23 20 21 19 13 13 6 4 2 23 17 2 3 3 3 12 8 3 3 5 3 2 1 1 3 1 3 3 5 6 8 7 5 8 11 6 4 6 13 23 24 24 25 23
24 22 19 15 10 7 9 25 18 19 9 4 3 3 3 4 3 3 2 3 2 2 2 1 2 1 2 3 5 3 5 8 7 4 4 7 17 19 18 24 28 19 15 21
22 20 16 7 3 4 7 15 12 4 8 3 3 3 3 2 2 3 3 2 2 1 2 3 3 2 5 7 7 8 10 10 12 9 13 14 17 16 15 19 17 18 13 20
23 14 4 2 8 12 7 4 1 4 4 3 3 3 4 3 2 2 3 1 3 3 3 3 3 4 6 6 8 7 11 17 19 17 8 12 14 15 15 14 18 22 21 21
6 4 5 8 6 12 4 4 5 5 6 5 3 5 2 3 4 2 2 3 2 4 3 5 3 4 5 10 10 9 13 21 13 9 12 18 24 19 17 17 22 24 24 23
13 8 1 2 6 3 5 5 3 4 6 6 6 3 2 2 3 3 2 3 1 5 4 3 3 4 5 4 7 11 15 17 12 21 22 26 26 28 28 27 26 24 27 28
9 2 1 3 4 7 6 8 3 3 5 6 6 6 3 2 3 3 3 4 4 3 2 4 5 2 1 5 9 11 16 23 24 24 26 30 29 30 34 29 27 30 27 27
3 4 4 5 5 5 5 5 6 5 4 11 13 5 3 2 2 3 4 1 3 1 3 6 3 6 7 7 10 16 15 17 22 26 30 30 30 28 28 30 34 32 27 26
3 4 5 7 4 3 3 3 3 3 7 12 6 4 3 2 3 1 4 2 4 5 5 4 2 10 11 12 12 15 16 16 21 28 29 30 32 31 28 29 30 33 31 27
2 5 5 4 3 2 2 3 2 6 10 4 3 4 4 2 3 3 7 8 7 4 3 2 7 10 10 12 13 15 22 25 27 27 30 31 31 32 32 32 33 31 29 26
5 5 4 5 6 8 4 4 6 10 11 7 4 5 6 4 3 4 5 5 3 3 4 5 8 13 13 14 20 23 26 27 29 30 29 30 35 39 35 28 29 27 24 22
Wind_Direction
278 276 274 280 299 321 306 279 235 320 150 145 196 157 201 242 237 182 182 118 120 166 169 145 186 213 239 21 162 143 84 127 156 157 67 351 188 173 143 121 244 236 144 277
271 270 267 268 280 299 307 262 264 14 301 163 207 69 247 249 208 194 171 153 149 179 167 150 180 168 243 33 147 156 186 11 65 352 14 347 210 94 97 105 88 199 144 258
262 263 257 257 258 269 262 287 240 109 190 341 145 179 220 251 226 208 150 136 111 111 115 43 174 153 16 7 86 59 95 126 159 186 197 145 178 188 122 128 137 187 226 298
253 256 254 248 247 248 226 248 251 220 200 216 171 190 169 200 251 231 199 74 167 151 123 96 157 139 117 63 31 66 97 153 117 211 122 197 205 163 181 190 203 179 266 205
249 250 245 243 239 230 222 273 261 236 255 156 197 190 202 181 213 180 234 161 180 151 151 176 193 147 188 186 65 89 27 145 93 19 14 238 284 248 217 224 246 258 276 279
247 247 243 238 233 221 221 248 273 249 162 176 179 192 173 197 239 265 221 167 124 149 208 167 153 121 113 159 145 123 109 126 106 239 8 23 311 246 212 199 204 172 206 235
243 242 239 238 233 225 223 273 299 292 249 191 198 182 202 202 159 259 18 143 130 194 119 106 56 56 67 69 51 107 128 101 89 185 40 357 241 229 197 206 231 216 274 286
239 239 237 236 233 231 229 240 273 356 283 224 172 184 189 199 147 230 325 282 301 153 74 73 56 359 27 7 28 54 94 118 83 137 206 290 309 332 142 177 295 143 235 284
237 237 233 232 231 229 228 240 244 244 319 258 297 182 177 163 178 166 299 340 95 42 87 84 133 176 180 202 85 60 74 69 112 153 146 228 234 255 256 86 293 279 278 301
233 232 229 229 228 224 221 231 222 175 258 274 319 190 183 130 131 143 264 246 222 35 98 99 146 197 167 161 166 170 97 37 154 145 213 288 240 227 354 94 232 128 25 67
229 228 219 225 223 216 212 232 224 183 246 275 302 329 315 148 161 147 211 50 325 39 76 125 199 137 206 123 169 176 163 143 181 84 84 277 189 89 164 205 169 124 80 82
225 220 224 219 218 212 211 227 221 211 238 281 307 286 285 275 191 158 142 207 223 186 92 130 112 113 104 152 209 43 200 179 177 179 211 234 223 198 117 150 138 135 111 122
220 219 212 216 208 207 201 216 218 182 172 290 259 265 293 245 233 194 160 240 232 255 183 158 148 137 136 154 225 151 232 164 153 98 237 227 234 195 146 125 110 111 124 130
212 211 203 202 201 208 206 217 217 195 174 247 278 271 259 236 220 201 203 131 164 116 69 113 136 144 189 189 149 159 187 138 170 257 279 280 243 196 139 100 109 108 104 120
211 204 199 191 201 208 221 243 225 215 201 291 298 302 269 237 204 188 201 166 188 162 68 84 178 130 124 33 75 224 190 179 167 216 209 170 200 152 137 132 137 133 124 109
199 187 188 190 199 191 193 264 233 216 226 284 286 320 275 231 167 160 167 126 83 53 124 175 187 317 113 140 189 245 205 191 180 213 123 82 99 94 97 120 118 118 111 118
187 184 189 191 195 190 200 204 122 200 179 240 282 284 243 179 133 87 81 57 102 99 262 156 141 142 98 130 192 236 206 169 138 131 113 67 175 150 119 116 112 106 101 103
184 183 184 188 196 226 261 236 245 185 172 265 223 258 270 202 138 97 98 107 94 28 129 28 135 62 64 258 225 217 137 123 135 155 45 121 115 115 115 120 119 108 106 110
181 168 167 161 186 210 238 263 231 176 208 221 182 186 229 180 99 98 78 113 72 91 163 223 105 182 215 219 189 184 175 170 147 101 106 119 125 130 130 126 122 116 118 115
155 135 119 188 212 201 178 218 179 197 207 236 226 150 232 106 78 61 111 72 134 153 232 114 162 250 248 224 210 176 153 137 131 118 115 124 132 138 136 131 127 125 126 122
131 136 192 229 177 168 162 203 194 205 178 194 208 185 143 357 120 110 34 143 140 158 213 171 216 262 230 199 202 162 156 158 162 129 135 154 146 144 132 121 121 124 125 124
159 149 179 249 192 182 187 207 222 215 192 160 157 147 115 110 93 104 151 97 107 197 144 121 249 246 218 174 148 143 150 140 120 129 128 133 135 133 127 126 126 125 126 131
116 126 299 201 185 183 209 179 202 203 170 168 153 128 134 80 68 89 123 154 192 106 102 215 228 219 162 141 131 123 120 114 114 115 119 121 120 125 127 124 127 128 127 133
111 153 233 242 174 212 199 203 170 208 153 147 150 117 123 101 131 133 124 120 129 143 223 225 240 181 151 131 131 125 125 122 122 124 123 122 121 119 122 126 135 133 129 137
174 192 222 232 238 261 221 192 120 156 170 146 124 77 117 146 135 134 110 128 217 213 227 219 178 142 134 130 128 125 124 124 124 128 124 123 123 121 121 129 133 134 134 134
214 232 251 274 263 250 253 141 151 168 162 118 78 117 94 180 149 149 209 160 212 237 201 152 128 126 123 127 123 122 125 125 124 124 125 124 125 126 128 136 137 136 136 133
225 233 225 234 268 279 263 166 167 163 160 178 135 123 164 130 179 211 178 197 230 188 126 129 135 133 131 125 119 121 123 121 121 122 122 119 127 132 128 124 136 134 134 130
Height
839 841 842 842 841 842 841 838 832 824 825 833 833 837 829 818 812 814 814 818 823 831 833 835 838 838 835 831 831 838 840 862 874 856 855 855 856 859 868 898 888 903 894 873
837 839 839 841 841 844 844 835 827 824 825 829 825 828 825 817 814 814 816 816 815 821 831 834 833 832 833 831 832 838 842 866 881 863 865 865 859 867 882 891 885 882 896 871
834 837 837 839 839 843 846 839 833 827 825 824 819 825 826 821 809 811 811 814 815 821 825 828 837 835 833 832 833 837 836 858 858 873 855 870 875 867 891 882 895 881 877 855
832 833 833 836 837 840 845 838 827 819 824 827 818 817 819 822 818 810 810 814 815 821 830 831 833 834 834 833 835 837 842 852 861 857 854 857 852 856 873 876 864 868 845 858
826 828 831 831 834 839 842 834 824 817 816 814 814 815 815 813 812 815 813 814 818 818 828 827 837 835 835 831 836 837 846 859 854 856 856 858 858 855 857 862 858 862 858 852
822 824 824 828 832 836 835 831 825 826 811 814 810 808 806 810 813 809 807 810 819 821 816 819 818 824 828 827 835 845 850 865 873 862 866 862 869 851 849 850 850 848 854 843
816 818 821 823 826 830 831 829 827 818 811 807 802 800 804 805 811 815 808 809 811 813 813 818 823 830 835 836 842 842 855 865 882 891 873 890 843 836 836 842 841 843 841 839
810 813 815 818 821 825 828 828 830 825 820 801 801 799 800 804 810 814 810 809 809 806 812 839 843 858 846 846 850 844 848 868 893 894 888 859 836 836 837 839 835 835 838 838
804 807 811 814 817 821 824 823 827 829 825 804 795 799 798 807 812 813 813 813 811 811 831 848 864 858 845 854 847 851 854 860 868 893 885 879 847 834 829 831 849 834 837 838
798 802 806 809 813 817 819 820 824 826 825 807 801 797 796 798 805 812 823 814 814 815 844 862 854 849 840 852 850 861 863 876 882 899 878 858 837 832 832 847 853 835 837 840
793 797 801 805 809 812 815 816 819 820 819 807 803 800 792 794 799 810 815 820 821 830 839 841 851 849 846 845 843 847 850 872 889 895 901 867 831 830 837 838 837 836 841 847
787 792 796 801 805 809 812 815 816 818 821 809 803 799 795 796 789 798 813 811 810 807 827 839 845 848 857 844 849 842 845 843 853 854 849 832 828 828 829 832 834 838 843 849
783 787 792 797 802 806 809 812 814 816 818 810 803 790 786 787 789 792 804 808 804 804 800 817 824 818 837 846 842 835 833 835 846 838 826 830 827 828 829 830 835 839 843 848
779 784 789 793 799 804 806 808 809 811 810 806 791 785 784 783 784 786 791 791 798 799 799 809 823 824 821 830 820 827 829 831 835 836 827 827 826 827 830 836 838 843 848 851
775 780 785 790 797 801 803 804 805 807 811 800 791 784 777 777 776 778 786 791 799 799 806 811 816 814 817 829 827 829 823 821 829 828 813 815 819 824 830 834 840 844 846 857
772 777 783 789 795 798 801 802 799 801 807 809 792 782 776 773 775 778 783 784 790 795 800 810 807 804 808 826 824 807 805 805 805 807 812 820 824 828 830 835 843 848 852 856
770 776 782 788 791 793 795 796 794 797 804 805 792 785 774 773 771 777 784 786 792 798 807 809 804 806 810 820 813 795 798 800 807 810 812 825 825 831 835 837 846 852 858 863
769 776 782 786 789 793 793 787 789 793 800 799 789 785 774 767 770 778 781 789 792 800 803 806 803 810 812 809 793 790 794 801 807 808 808 811 823 832 838 843 847 856 864 869
770 776 781 785 789 791 786 786 789 790 794 788 785 780 768 764 767 775 783 785 794 804 805 804 807 812 802 782 784 790 792 793 804 813 816 821 825 834 840 845 852 856 868 873
769 776 781 786 781 782 786 787 789 786 784 779 775 769 764 761 767 779 784 789 796 799 798 803 807 797 782 777 776 777 787 792 798 813 825 829 833 836 842 847 853 859 867 875
767 774 777 774 777 780 783 783 782 773 766 766 761 763 760 764 768 779 779 788 792 795 794 797 795 795 776 769 771 776 781 784 791 791 798 810 815 828 839 850 857 864 870 876
765 769 772 773 770 774 773 770 764 755 748 749 757 757 759 764 765 774 782 786 795 788 801 806 795 774 762 765 768 774 779 784 792 796 803 815 824 831 839 849 859 867 872 878
766 770 772 770 752 758 758 754 749 743 737 739 742 754 760 763 769 780 783 785 789 796 806 787 776 763 765 766 768 775 781 786 795 804 811 819 828 836 841 852 863 868 875 881
766 772 770 756 742 739 734 731 729 727 730 731 735 752 759 765 771 775 774 783 786 794 788 777 763 760 766 767 769 774 784 791 799 807 815 823 831 842 850 856 863 869 876 883
762 761 752 736 727 729 725 724 722 722 722 726 740 752 759 769 771 772 784 787 783 776 766 759 756 758 763 768 774 780 788 796 804 811 818 828 836 844 854 862 868 872 878 884
754 748 740 729 726 729 731 722 721 717 720 729 732 745 752 761 761 766 766 766 769 753 753 755 758 762 767 773 779 786 792 799 807 816 824 832 840 847 856 865 871 876 881 885
746 736 731 731 733 728 723 710 713 713 719 722 733 732 736 757 758 756 757 758 747 751 753 757 760 764 772 777 782 790 798 805 813 821 831 837 845 852 859 867 876 880 885 888